Location: El Carrer d�Abaix
(41.5797°N, 2.1791°E)
Time: 21:52:39
(UTC+00:00)

Cosmos 2082 Rocket - Pass Details

Date: 06 October 2020
Orbit: 834 x 853 km, 71.0° (Epoch: 27 October)

Event Time Altitude Azimuth Distance (km) Brightness Sun altitude
Rises 19:47:41 0° 321° (NW) 3,395 6.2 -27.4°
Reaches altitude 10° 19:50:45 10° 304° (NW) 2,458 5.5 -27.9°
Maximum altitude 19:54:39 19° 260° (W) 1,877 4.6 -28.6°
Drops below altitude 10° 19:58:33 10° 216° (SW) 2,455 4.8 -29.3°
Sets 20:01:38 0° 199° (SSW) 3,388 5.3 -29.8°
